Jefferson, NC

10:54 AM EDT on August 20, 2019 (GMT -0400)
Ashe County

Weather History for KGEV - June, 2019

Change the Weather History Date:

Saturday, June 8, 2019

  Actual Average Record
Temperature  
Mean Temperature 64 °F -  
Max Temperature 66 °F 75 °F 87 °F (1969)
Min Temperature 61 °F 51 °F 36 °F (1977)
Degree Days  
Heating Degree Days 2    
Growing Degree Days 14 (Base 50)    
Moisture  
Dew Point 63 °F    
Average Humidity 100    
Maximum Humidity 100    
Minimum Humidity 96    
Precipitation  
Precipitation 2.63 in - - ()
Sea Level Pressure  
Sea Level Pressure 30.01 in    
Wind  
Wind Speed 4 mph (East)    
Max Wind Speed 13 mph    
Max Gust Speed 21 mph    
Visibility 5 miles    
Events Rain , Thunderstorm    
Averages and records for this station are not official NWS values.
T = Trace of Precipitation, MM = Missing Value Source: NWS Daily Summary

Daily Weather History Graph

Daily Weather History Graph

Search for Another Location

Airport or City:

Astronomy

Jun. 08, 2019 Rise Set
Actual Time 6:07 AM EDT 8:42 PM EDT
Civil Twilight 5:37 AM EDT 9:12 PM EDT
Nautical Twilight 4:59 AM EDT 9:50 PM EDT
Astronomical Twilight 4:17 AM EDT 10:31 PM EDT
Moon 11:29 AM EDT (6/8) 12:46 AM EDT (6/8)
Length of Visible Light 15h 35m
Length of Day
14h 34m
Waxing Crescent, 32% of the Moon is Illuminated
Jun 8
Waxing Crescent
Jun 10
First Quarter
Jun 17
Full
Jun 25
Last Quarter
Jul 2
New

Hourly Weather History & Observations

Time (EDT) Temp. Dew Point Humidity Pressure Visibility Wind Dir Wind Speed Gust Speed Precip Events Conditions
12:05 AM 61.9 °F 61.7 °F 99% 29.96 in 10.0 mi NE 5.8 mph - N/A Rain Rain
12:25 AM 61.7 °F 61.7 °F 100% 29.95 in 10.0 mi ENE 5.8 mph - N/A   Overcast
12:45 AM 61.7 °F 61.7 °F 100% 29.95 in 10.0 mi NE 3.5 mph - 0.01 in Rain Rain
1:05 AM 61.7 °F 61.7 °F 100% 29.95 in 7.0 mi NE 3.5 mph - 0.02 in Rain Rain
1:25 AM 61.7 °F 61.7 °F 100% 29.96 in 10.0 mi ESE 3.5 mph - 0.05 in Rain Rain
1:45 AM 61.7 °F 61.7 °F 100% 29.95 in 7.0 mi East 9.2 mph - 0.09 in Rain Rain
2:05 AM 61.7 °F 61.7 °F 100% 29.95 in 7.0 mi East 3.5 mph - 0.02 in Rain Rain
2:25 AM 61.7 °F 61.7 °F 100% 29.95 in 4.0 mi ESE 3.5 mph - 0.09 in Rain Heavy Rain
2:45 AM 61.7 °F 61.7 °F 100% 29.95 in 5.0 mi East 4.6 mph - 0.21 in Rain Heavy Rain
3:05 AM 61.7 °F 61.7 °F 100% 29.95 in 3.0 mi Calm Calm - 0.04 in Rain Heavy Rain
3:25 AM 61.7 °F 61.7 °F 100% 29.95 in 1.0 mi Calm Calm - 0.18 in Rain Heavy Rain
3:45 AM 61.7 °F 61.7 °F 100% 29.95 in 2.5 mi Calm Calm - 0.23 in Rain Heavy Rain
4:05 AM 61.7 °F 61.7 °F 100% 29.95 in 0.8 mi Calm Calm - 0.01 in Rain Light Rain
4:25 AM 61.7 °F 61.7 °F 100% 29.95 in 2.0 mi Calm Calm - 0.02 in Rain Light Rain
4:45 AM 61.3 °F 61.3 °F 100% 29.96 in 10.0 mi Calm Calm - 0.02 in Rain Light Rain
5:05 AM 61.5 °F 61.5 °F 100% 29.96 in 2.5 mi Calm Calm - N/A Rain Rain
5:25 AM 61.7 °F 61.7 °F 100% 29.96 in 1.2 mi Calm Calm - 0.01 in   Drizzle
5:45 AM 61.7 °F 61.7 °F 100% 29.97 in 1.0 mi Calm Calm - 0.01 in Rain Rain
6:05 AM 61.7 °F 61.7 °F 100% 29.97 in 0.8 mi Calm Calm - N/A Rain Rain
6:25 AM 61.7 °F 61.7 °F 100% 29.97 in 1.0 mi Calm Calm - N/A   Drizzle
6:45 AM 61.7 °F 61.7 °F 100% 29.98 in 0.2 mi Calm Calm - N/A   Drizzle
7:25 AM 61.9 °F 61.9 °F 100% 29.98 in 0.8 mi Calm Calm - N/A   Light Drizzle
7:45 AM 61.7 °F 61.7 °F 100% 29.99 in 10.0 mi East 3.5 mph - N/A   Overcast
8:05 AM 61.7 °F 61.7 °F 100% 30.00 in 10.0 mi Calm Calm - N/A   Overcast
8:25 AM 61.9 °F 61.9 °F 100% 30.00 in 10.0 mi Calm Calm - N/A   Overcast
8:45 AM 62.4 °F 62.4 °F 100% 30.01 in 10.0 mi ENE 3.5 mph - N/A   Overcast
9:05 AM 62.6 °F 62.6 °F 100% 30.01 in 10.0 mi ENE 4.6 mph - N/A   Overcast
9:25 AM 62.6 °F 62.6 °F 100% 30.01 in 3.0 mi ENE 4.6 mph - N/A Rain Light Rain
9:45 AM 62.6 °F 62.6 °F 100% 30.02 in 2.5 mi Calm Calm - 0.04 in Rain Rain
10:05 AM 62.8 °F 62.8 °F 100% 30.02 in 1.2 mi NNE 3.5 mph - 0.08 in Rain Heavy Rain
10:25 AM 62.8 °F 62.8 °F 100% 30.02 in 1.8 mi ESE 5.8 mph - 0.20 in Rain Heavy Rain
11:05 AM 62.8 °F 62.8 °F 100% 30.02 in 3.0 mi ESE 4.6 mph - 0.01 in Rain Rain
11:25 AM 62.6 °F 62.6 °F 100% 30.03 in 0.8 mi Calm Calm - 0.36 in Rain Heavy Rain
11:45 AM 62.8 °F 62.8 °F 100% 30.04 in 2.0 mi Calm Calm - 0.52 in Rain Heavy Rain
12:05 PM 63.0 °F 63.0 °F 100% 30.04 in 1.5 mi Calm Calm - 0.01 in Rain Light Rain
12:25 PM 63.5 °F 63.5 °F 100% 30.04 in 7.0 mi Calm Calm - 0.01 in   Light Drizzle
12:45 PM 64.4 °F 64.4 °F 100% 30.04 in 7.0 mi Calm Calm - 0.01 in Rain Rain
1:05 PM 64.8 °F 64.8 °F 100% 30.04 in 7.0 mi ESE 5.8 mph - N/A   Overcast
1:25 PM 65.1 °F 64.9 °F 99% 30.04 in 7.0 mi ESE 3.5 mph - N/A   Overcast
1:45 PM 64.4 °F 64.2 °F 99% 30.04 in 4.0 mi ESE 4.6 mph - N/A   Light Drizzle
2:05 PM 65.3 °F 64.8 °F 98% 30.04 in 5.0 mi ESE 3.5 mph - N/A Rain Light Rain
2:25 PM 65.3 °F 64.4 °F 97% 30.03 in 10.0 mi East 5.8 mph - N/A Rain Light Rain
2:45 PM 64.8 °F 64.0 °F 98% 30.03 in 4.0 mi Calm Calm - 0.02 in Rain Light Rain
3:05 PM 65.5 °F 65.1 °F 99% 30.03 in 5.0 mi ENE 3.5 mph - 0.01 in   Overcast
3:25 PM 65.7 °F 65.3 °F 99% 30.02 in 2.0 mi Calm Calm - 0.01 in Rain Light Rain
3:45 PM 65.8 °F 64.8 °F 96% 30.02 in 10.0 mi East 9.2 mph - 0.01 in   Overcast
4:05 PM 65.3 °F 64.8 °F 98% 30.02 in 7.0 mi East 6.9 mph - N/A   Overcast
4:25 PM 65.3 °F 64.6 °F 98% 30.02 in 7.0 mi East 5.8 mph - N/A Rain Light Rain
4:45 PM 66.4 °F 65.5 °F 97% 30.02 in 10.0 mi East 3.5 mph - N/A Rain Light Rain
5:05 PM 64.4 °F 64.0 °F 99% 30.02 in 0.8 mi East 10.4 mph - 0.22 in Rain Heavy Rain
5:25 PM 64.4 °F 64.0 °F 99% 30.03 in 4.0 mi East 9.2 mph - 0.31 in Rain Rain
5:45 PM 64.0 °F 63.9 °F 99% 30.03 in 10.0 mi East 5.8 mph - 0.31 in   Overcast
6:05 PM 64.4 °F 64.0 °F 99% 30.03 in 5.0 mi East 5.8 mph - 0.02 in Rain Rain
6:25 PM 63.9 °F 63.5 °F 99% 30.03 in 5.0 mi East 10.4 mph 17.3 mph 0.07 in Rain Light Rain
6:45 PM 63.5 °F 63.1 °F 99% 30.03 in 7.0 mi ENE 9.2 mph 16.1 mph 0.12 in Rain Rain
7:05 PM 63.1 °F 62.8 °F 99% 30.03 in 10.0 mi East 10.4 mph 20.7 mph N/A   Overcast
7:25 PM 63.0 °F 62.8 °F 99% 30.03 in 10.0 mi East 12.7 mph 17.3 mph N/A   Overcast
7:45 PM 62.8 °F 62.6 °F 99% 30.04 in 7.0 mi East 12.7 mph 17.3 mph 0.01 in Rain Light Rain
8:05 PM 62.6 °F 62.6 °F 100% 30.04 in 10.0 mi East 9.2 mph - N/A   Overcast
8:25 PM 62.6 °F 62.2 °F 99% 30.04 in 10.0 mi East 6.9 mph - 0.01 in Rain Light Rain
8:45 PM 62.2 °F 62.2 °F 100% 30.05 in 1.8 mi ENE 6.9 mph - 0.27 in Rain , Thunderstorm Heavy Thunderstorms and Rain
9:05 PM 62.6 °F 62.6 °F 100% 30.04 in 4.0 mi East 11.5 mph 18.4 mph 0.08 in   Overcast
9:25 PM 62.6 °F 62.6 °F 100% 30.05 in 7.0 mi East 11.5 mph 16.1 mph 0.17 in Rain Rain
9:45 PM 62.6 °F 62.2 °F 99% 30.06 in 4.0 mi ESE 9.2 mph 16.1 mph 0.29 in Rain Heavy Rain
10:25 PM 62.1 °F 62.1 °F 100% 30.07 in 5.0 mi Calm Calm - 0.07 in Rain Rain
10:45 PM 61.9 °F 61.9 °F 100% 30.07 in 2.5 mi ESE 5.8 mph - 0.23 in Rain Heavy Rain
11:05 PM 61.9 °F 61.9 °F 100% 30.08 in 1.5 mi SSE 3.5 mph - 0.01 in Rain Rain
11:25 PM 61.7 °F 61.7 °F 100% 30.07 in 7.0 mi Calm Calm - 0.02 in Rain Light Rain
11:45 PM 61.9 °F 61.9 °F 100% 30.07 in 2.5 mi South 3.5 mph - 0.04 in Rain Heavy Rain